Vertical_Velocity
-2 -2 -3 -3 -3 -4 -4 -5 -5 -6 -6 -6 -7 -8 -8 -7 -7 -7 -6 -5 -4 -4 -4 -5 -4 -4 -4 -6 -3 -4 -5 -7 -6 -5 -5 -5 -5 -4 -3 -2 -2 -2 -2 -2 -3 -3 -3 -2 -0 -0 0 1 2 0 -1 3 5 2 1 6 5 3 1 2 1 3 7 15 12
-3 -3 -3 -4 -4 -4 -4 -5 -5 -6 -6 -6 -6 -6 -6 -5 -4 -3 -3 -2 -2 -2 -3 -4 -5 -4 -4 -7 -6 -5 -4 -6 -6 -6 -6 -5 -5 -4 -3 -2 -2 -2 -2 -1 -2 -3 -3 -3 -2 -1 -1 -1 2 1 0 2 5 3 -0 2 3 1 -2 -4 -3 2 11 25 30
-3 -3 -4 -4 -5 -5 -5 -4 -4 -4 -4 -4 -4 -3 -2 -2 -1 -1 -1 -1 -3 -4 -4 -5 -7 -7 -6 -6 -7 -6 -5 -4 -5 -5 -6 -6 -5 -4 -4 -3 -2 -2 -3 -2 -2 -3 -4 -3 -2 -2 -1 -1 1 2 1 1 5 4 3 2 3 3 1 0 2 7 15 27 33
-2 -3 -4 -4 -4 -4 -4 -3 -3 -3 -2 -1 -1 -1 -0 -0 -0 -1 -1 -3 -4 -5 -6 -6 -6 -6 -6 -4 -5 -5 -5 -4 -4 -4 -4 -6 -4 -4 -3 -3 -2 -2 -2 -3 -3 -4 -4 -3 -3 -2 -1 -1 0 1 2 2 4 5 5 6 5 5 5 5 6 9 14 19 20
-2 -2 -2 -2 -2 -2 -2 -2 -1 -2 -2 -1 0 -0 -1 -1 -1 -2 -3 -5 -5 -5 -5 -4 -4 -4 -3 -1 -1 -2 -3 -4 -4 -3 -4 -5 -5 -3 -2 -3 -2 -2 -2 -3 -4 -4 -4 -3 -3 -2 -0 -0 -1 -0 2 3 3 4 4 5 4 4 5 5 7 11 15 17 16
-2 -2 -2 -2 -1 -1 -1 -1 -0 -1 -1 -1 -0 -1 -2 -2 -3 -3 -3 -3 -4 -3 -2 -1 -1 -1 -2 -1 -1 -1 -1 -2 -3 -2 -2 -4 -5 -4 -2 -2 -3 -3 -3 -3 -4 -4 -3 -1 -4 -3 -1 2 -2 -2 0 2 2 2 3 4 4 4 4 3 6 11 15 19 18
-1 -1 -2 -2 -1 -1 -1 -1 -1 -1 -0 -0 -0 -1 -2 -3 -3 -2 -2 -1 -1 -1 -1 -0 1 1 -0 -1 -1 -1 -1 -2 -3 -3 -2 -2 -4 -4 -3 -1 -3 -4 -4 -2 -4 -4 -3 -0 -2 -4 -3 -0 -1 -2 -1 1 0 1 2 2 3 4 4 3 2 3 5 9 12
-1 -1 -1 -1 -1 -1 -1 -1 -1 -1 -1 -1 -1 -2 -3 -3 -2 -2 -1 -1 -0 0 1 0 -0 1 1 0 -1 -1 -1 -1 -2 -4 -5 -4 -3 -4 -4 -3 -2 -3 -4 -2 -3 -4 -4 -1 -1 -2 -3 -2 -2 -1 -1 -1 -1 -0 0 -1 0 1 1 -0 -0 -1 -2 -3 -1
-2 -2 -1 -1 -0 -0 -0 -0 -0 -0 -1 -2 -2 -2 -2 -2 -2 -1 -0 -0 -1 -0 0 1 -0 -1 -1 -1 -2 -2 -1 -0 -1 -3 -5 -6 -5 -4 -5 -4 -2 -3 -3 -2 -2 -3 -3 -2 -2 -2 -2 -2 -3 -2 -1 -1 -2 -1 -1 -1 -2 -1 0 0 0 -0 -1 -3 -4
-2 -2 -1 -1 -1 -0 0 0 -1 -0 -0 -1 -3 -3 -2 -2 -1 -1 -0 1 -0 -1 -2 -1 -1 -2 -2 -1 -2 -3 -3 -2 -1 -2 -4 -6 -6 -5 -4 -4 -3 -2 -2 -2 -1 -1 -2 -2 -2 -2 -2 -2 -3 -3 -2 -2 -2 -2 -2 -2 -2 -1 -0 0 0 0 0 0 -0
-2 -2 -1 -0 -1 -0 0 1 -1 -1 -1 -1 -2 -2 -2 -2 -1 -2 -2 -1 -1 -2 -4 -4 -2 -3 -4 -2 -1 -2 -3 -4 -3 -3 -4 -6 -6 -6 -4 -4 -3 -2 -2 -2 -1 -1 -2 -2 -2 -2 -2 -2 -3 -3 -3 -3 -3 -4 -4 -3 -3 -2 -2 -1 -1 -1 -0 -0 -0
-2 -2 -2 -1 -0 -0 0 0 -0 -1 -1 -1 -1 -1 -1 -2 -2 -2 -2 -3 -2 -3 -4 -4 -3 -3 -4 -5 -3 -2 -2 -4 -5 -5 -5 -5 -6 -6 -5 -4 -3 -3 -3 -2 -2 -2 -2 -2 -3 -3 -3 -3 -3 -4 -4 -4 -4 -4 -4 -4 -4 -4 -4 -4 -4 -4 -4 -4 -3
-2 -2 -2 -1 -1 -1 -0 -1 -1 -1 -1 -1 -1 -1 -1 -3 -3 -3 -2 -3 -4 -4 -5 -6 -4 -3 -3 -4 -5 -4 -3 -2 -5 -6 -6 -5 -5 -6 -6 -5 -4 -4 -4 -3 -2 -2 -3 -3 -3 -4 -4 -4 -4 -4 -4 -4 -3 -3 -4 -4 -4 -4 -5 -6 -6 -6 -6 -5 -5
-2 -2 -1 -1 -1 -1 -1 -1 -2 -1 -1 -1 -2 -2 -2 -3 -4 -4 -4 -4 -4 -4 -5 -7 -7 -5 -3 -2 -4 -6 -6 -3 -4 -5 -6 -5 -4 -4 -5 -5 -4 -4 -4 -4 -3 -3 -3 -3 -3 -3 -3 -3 -3 -3 -3 -3 -3 -2 -2 -2 -3 -3 -4 -4 -4 -4 -4 -4 -4
-2 -1 -1 -1 -2 -2 -2 -2 -2 -2 -1 -2 -2 -2 -2 -3 -4 -4 -4 -5 -6 -4 -4 -4 -7 -8 -7 -4 -2 -4 -6 -7 -4 -4 -6 -6 -4 -4 -4 -5 -4 -4 -4 -4 -3 -3 -4 -4 -4 -3 -3 -3 -2 -2 -2 -2 -2 -2 -2 -2 -2 -2 -2 -2 -2 -2 -2 -2 -2
-1 -1 -1 -1 -2 -2 -3 -3 -3 -2 -2 -2 -3 -2 -2 -3 -4 -4 -4 -5 -7 -7 -6 -4 -4 -6 -8 -8 -4 -3 -4 -8 -5 -4 -4 -6 -4 -3 -3 -4 -4 -4 -4 -4 -4 -4 -4 -4 -4 -3 -3 -3 -2 -2 -2 -2 -2 -2 -2 -2 -1 -1 -1 -1 -1 -1 -1 -1 -0
-0 -0 -1 -1 -1 -2 -3 -3 -3 -3 -3 -3 -3 -3 -2 -2 -4 -5 -5 -4 -5 -6 -7 -7 -4 -3 -4 -8 -8 -5 -3 -6 -6 -4 -3 -5 -4 -4 -3 -3 -3 -3 -3 -3 -3 -3 -3 -3 -3 -3 -3 -2 -2 -2 -2 -1 -1 -1 -1 -1 -1 -1 -1 -1 -1 -0 -1 -0 -0
-0 -0 -0 -1 -1 -2 -2 -3 -3 -3 -3 -3 -3 -3 -3 -2 -3 -4 -6 -7 -4 -4 -5 -7 -6 -4 -3 -4 -7 -7 -5 -3 -5 -4 -2 -3 -3 -3 -3 -4 -3 -3 -3 -3 -2 -2 -2 -2 -2 -2 -2 -1 -1 -1 -1 -1 -1 -1 -1 -0 -0 -0 -0 -0 -0 -0 -0 -0 -0
-1 -1 -1 -1 -1 -2 -2 -2 -3 -3 -4 -3 -3 -3 -3 -3 -3 -4 -6 -8 -7 -5 -4 -5 -5 -5 -4 -3 -5 -6 -5 -3 -4 -3 -2 -2 -3 -3 -3 -3 -2 -2 -2 -2 -1 -1 -1 -1 -1 -1 -0 -0 -0 -0 -0 -0 -0 -0 -0 -0 -0 -0 -1 -1 -1 -1 -1 -1 -1
-1 -1 -1 -1 -1 -2 -2 -3 -3 -3 -4 -4 -3 -4 -4 -5 -5 -5 -5 -6 -7 -6 -5 -4 -4 -4 -4 -4 -4 -4 -4 -3 -3 -2 -2 -1 -2 -2 -2 -2 -1 -1 -1 -1 -0 -0 -0 -0 -0 0 0 0 0 -0 -0 -0 -0 -0 -1 -1 -1 -1 -1 -1 -1 -1 -1 -1 -1
-2 -2 -2 -2 -2 -2 -2 -3 -3 -3 -4 -4 -4 -4 -5 -6 -6 -5 -5 -5 -5 -5 -4 -4 -4 -4 -4 -3 -4 -4 -3 -2 -2 -2 -2 -1 -1 -1 -1 -1 -0 -0 0 0 0 0 0 0 -0 0 0 0 -0 -0 -0 -1 -1 -1 -1 -1 -1 -1 -1 -1 -1 -1 -1 -1 -1
-2 -2 -2 -2 -2 -2 -3 -3 -3 -3 -4 -4 -5 -5 -5 -6 -6 -5 -5 -5 -4 -4 -4 -3 -3 -3 -3 -3 -2 -3 -2 -1 -1 -1 -1 -1 -0 0 0 -0 0 1 1 0 0 0 0 0 -0 -0 -0 -0 -0 -1 -1 -1 -1 -1 -1 -0 -0 -0 -1 -1 -1 -1 -1 -1 -1
-3 -3 -3 -2 -2 -2 -2 -3 -3 -3 -4 -5 -6 -6 -6 -6 -5 -5 -4 -4 -4 -4 -4 -3 -2 -2 -3 -3 -2 -2 -2 -1 -0 -0 -0 -0 -0 0 1 1 1 1 0 -0 -0 -0 -0 -0 -0 0 0 0 0 -0 -1 -1 -1 -1 -0 -0 -0 0 0 -0 -1 -1 -1 -1 -1
-3 -3 -3 -3 -3 -2 -2 -2 -3 -4 -4 -5 -5 -6 -6 -5 -5 -4 -4 -4 -3 -3 -3 -4 -2 -2 -2 -3 -2 -1 -1 -2 -1 -0 -0 0 -0 -0 -0 0 0 0 -0 -1 -1 -1 -0 -0 0 1 1 1 1 1 0 -0 -1 -1 -1 -0 -0 0 1 1 0 -0 -1 -2 -2
-3 -4 -3 -3 -3 -3 -3 -3 -3 -4 -5 -5 -5 -5 -4 -4 -4 -3 -2 -3 -3 -3 -3 -3 -3 -2 -1 -1 -2 -1 -1 -1 -1 -1 -1 -0 -0 -0 -0 -0 -0 -0 -0 -1 -1 -1 -1 -1 0 1 1 1 1 1 0 -0 -0 -1 -1 -1 -0 0 1 1 1 1 0 -1 -2
-3 -3 -3 -3 -2 -3 -4 -4 -4 -4 -5 -5 -5 -5 -5 -4 -3 -2 -2 -2 -3 -3 -3 -3 -4 -3 -2 -1 -1 -1 -1 -0 -1 -1 -1 -1 -0 -0 0 0 0 0 0 -0 -0 -0 -1 -1 -1 -0 -0 0 0 0 -0 -0 -1 -1 -1 -1 -1 -0 0 1 1 1 1 1 -0
-3 -3 -3 -3 -3 -3 -4 -5 -5 -5 -5 -5 -5 -5 -4 -4 -3 -2 -2 -2 -2 -2 -3 -2 -2 -3 -3 -1 -1 -1 -1 -1 -0 -0 -0 -0 -0 -0 0 0 1 1 1 1 0 0 0 -0 -0 -1 -1 -1 -1 -1 -1 -1 -1 -1 -1 -1 -1 -1 -0 -0 0 1 1 1 1
-3 -2 -2 -3 -4 -5 -5 -5 -5 -6 -5 -5 -4 -4 -4 -3 -3 -2 -2 -3 -3 -3 -3 -2 -1 -1 -2 -2 -1 -1 -1 -1 -1 -0 -0 -0 -0 -0 0 0 0 1 1 1 1 1 0 0 -0 -1 -1 -1 -1 -2 -2 -1 -1 -1 -1 -1 -1 -1 -1 -1 -1 -0 0 1 1
-2 -2 -3 -4 -4 -5 -6 -6 -5 -5 -5 -5 -4 -4 -4 -4 -3 -2 -2 -2 -3 -3 -4 -4 -2 -0 -0 -1 -1 -1 -0 -1 -1 -1 -0 -0 -0 -0 -0 -0 0 0 1 1 1 1 0 0 -0 -0 -1 -1 -1 -2 -2 -2 -2 -2 -2 -1 -1 -1 -2 -2 -2 -1 -1 -0 0
-1 -2 -3 -4 -5 -5 -6 -6 -5 -4 -4 -5 -4 -4 -4 -3 -4 -4 -3 -2 -2 -2 -2 -3 -3 -2 -1 -1 -1 -1 -0 -0 -0 -0 -0 -0 -0 -1 -1 -0 0 0 1 1 1 1 0 0 0 -0 -0 -1 -1 -2 -2 -2 -2 -2 -2 -2 -2 -2 -2 -2 -2 -2 -2 -2 -1
-2 -2 -3 -4 -5 -5 -5 -5 -5 -4 -4 -4 -5 -4 -4 -3 -3 -4 -4 -4 -3 -2 -1 -1 -2 -2 -2 -1 -1 -1 -1 -1 -0 -0 -0 -0 -0 -1 -1 -1 -0 0 1 1 1 1 1 1 1 0 0 -0 -1 -1 -1 -1 -1 -1 -2 -2 -2 -2 -2 -2 -3 -3 -3 -2 -2
-3 -3 -3 -4 -5 -5 -4 -4 -4 -5 -4 -4 -4 -4 -4 -4 -2 -1 -2 -4 -4 -4 -3 -1 -1 -1 -1 -1 -0 -0 -1 -1 -0 -0 -0 -0 -0 -1 -1 -1 -0 -0 1 1 1 1 1 1 1 1 1 1 0 -0 -0 -0 -0 -1 -1 -1 -1 -2 -2 -2 -3 -3 -3 -3 -2
-3 -3 -3 -3 -4 -4 -4 -3 -4 -4 -4 -4 -4 -3 -3 -4 -4 -2 -1 -1 -3 -3 -3 -3 -2 -2 -1 -1 -1 -0 -0 -0 -0 -0 -0 -0 -0 -1 -1 -1 -1 -0 0 1 1 1 1 1 2 2 2 2 2 1 1 1 1 1 0 0 -0 -1 -1 -2 -2 -3 -3 -3 -3
-3 -3 -3 -3 -3 -3 -3 -3 -3 -4 -4 -4 -4 -3 -2 -2 -4 -5 -4 -2 -1 -2 -2 -2 -2 -2 -2 -1 -1 -1 -1 -0 -0 -0 -1 -1 -1 -1 -1 -1 -1 -1 -0 0 0 0 0 0 1 2 2 3 2 2 2 1 1 1 1 1 1 -0 -1 -1 -2 -2 -2 -3 -3
-3 -3 -3 -3 -3 -2 -3 -3 -3 -4 -4 -4 -4 -3 -2 -1 -1 -2 -3 -3 -2 -2 -2 -2 -2 -2 -2 -2 -1 -1 -1 -1 -1 -0 -1 -1 -1 -1 -1 -1 -1 -1 -1 -0 -0 -0 -0 -1 -1 -0 1 2 2 2 2 2 1 1 1 1 1 0 -0 -1 -1 -2 -2 -2 -2
-2 -2 -2 -3 -2 -2 -2 -3 -4 -4 -4 -3 -3 -3 -3 -2 -1 -1 -1 -2 -2 -2 -2 -3 -2 -2 -2 -2 -1 -1 -1 -1 -1 -1 -1 -1 -0 -0 -1 -1 -1 -1 -1 -1 -1 -1 -1 -2 -2 -1 -1 0 1 1 1 1 1 1 1 1 1 1 0 -0 -1 -1 -2 -2 -3
-2 -2 -2 -2 -2 -2 -2 -3 -4 -4 -4 -3 -2 -2 -3 -3 -2 -2 -2 -1 -2 -1 -1 -2 -2 -2 -2 -2 -1 -1 -1 -1 -1 -1 -1 -1 -0 -0 -0 -1 -1 -1 -1 -1 -1 -2 -2 -2 -2 -2 -1 -0 0 1 1 1 1 1 1 1 1 1 0 -0 -1 -1 -2 -2 -3
-3 -2 -2 -2 -3 -3 -2 -2 -4 -4 -4 -3 -2 -1 -1 -2 -2 -2 -2 -2 -2 -2 -1 -1 -1 -1 -1 -1 -1 -1 -1 -1 -0 -0 -1 -1 -0 -0 -0 -0 -1 -1 -1 -1 -2 -2 -2 -3 -3 -2 -2 -0 -0 0 1 1 1 1 1 1 1 1 0 -0 -1 -1 -2 -2 -2
-3 -3 -3 -3 -3 -3 -3 -2 -3 -4 -4 -4 -2 -2 -1 -1 -2 -2 -2 -1 -1 -2 -2 -1 -1 -1 -1 -1 -1 -1 -1 -1 -0 -0 -0 -1 -0 -0 -0 -0 -1 -1 -1 -1 -2 -2 -2 -3 -3 -2 -2 -1 -0 -0 0 1 1 2 2 1 1 1 1 0 -0 -1 -1 -1 -1
-3 -3 -3 -3 -3 -3 -4 -3 -2 -2 -3 -4 -3 -2 -2 -1 -2 -2 -2 -1 -1 -1 -1 -1 -1 -1 -1 -1 -1 -1 -1 -1 -1 -0 -0 -0 -1 -0 -0 -0 -1 -1 -1 -1 -2 -2 -3 -3 -3 -3 -2 -1 -1 -1 -0 0 1 2 2 1 1 1 1 1 0 0 -0 -0 -0
-3 -3 -4 -4 -2 -2 -3 -4 -4 -3 -2 -2 -2 -2 -1 -1 -1 -2 -2 -2 -1 -1 -1 -1 -1 -1 -1 -1 -1 -1 -1 -1 -1 -1 -1 -1 -1 -1 -0 -0 -1 -1 -2 -2 -2 -2 -3 -3 -3 -3 -2 -2 -1 -1 -1 -0 1 1 2 1 1 1 1 1 1 1 1 0 -0
Height
5709 5707 5704 5702 5699 5697 5695 5692 5689 5687 5684 5682 5679 5677 5674 5672 5669 5666 5663 5660 5657 5654 5650 5646 5643 5639 5635 5630 5626 5622 5618 5614 5609 5605 5601 5597 5594 5589 5585 5581 5576 5572 5567 5563 5558 5554 5549 5545 5541 5537 5532 5528 5523 5519 5515 5512 5509 5508 5505 5503 5500 5499 5498 5496 5496 5495 5495 5494 5489
5705 5703 5700 5698 5695 5693 5690 5688 5685 5683 5680 5678 5675 5672 5669 5667 5664 5661 5658 5654 5651 5647 5644 5639 5635 5631 5627 5623 5619 5614 5610 5606 5602 5597 5593 5589 5586 5582 5578 5573 5569 5564 5559 5554 5550 5545 5540 5536 5531 5527 5523 5519 5514 5511 5507 5504 5501 5499 5498 5495 5493 5492 5491 5490 5490 5491 5491 5490 5487
5700 5698 5696 5693 5691 5688 5686 5684 5681 5679 5676 5673 5670 5668 5665 5662 5659 5655 5652 5648 5644 5640 5636 5632 5628 5624 5620 5616 5612 5607 5603 5599 5595 5591 5586 5582 5578 5574 5570 5565 5560 5556 5551 5546 5541 5536 5531 5526 5522 5518 5514 5510 5506 5503 5499 5496 5494 5493 5491 5489 5488 5487 5486 5486 5486 5487 5487 5485 5483
5696 5694 5691 5689 5686 5684 5682 5679 5677 5674 5671 5669 5666 5663 5659 5656 5653 5649 5645 5642 5637 5633 5629 5625 5621 5617 5614 5610 5606 5601 5597 5593 5589 5584 5580 5575 5571 5567 5562 5558 5552 5547 5542 5536 5531 5526 5521 5517 5512 5509 5505 5502 5499 5495 5493 5490 5488 5486 5485 5484 5483 5483 5482 5482 5482 5482 5481 5480 5477
5692 5689 5687 5684 5682 5679 5677 5674 5672 5669 5666 5664 5660 5657 5654 5651 5647 5643 5639 5635 5631 5627 5624 5620 5616 5612 5608 5604 5600 5596 5591 5586 5582 5578 5573 5568 5563 5559 5554 5549 5544 5538 5533 5528 5522 5517 5513 5508 5504 5500 5497 5494 5491 5489 5486 5484 5482 5480 5479 5478 5478 5478 5478 5477 5477 5477 5476 5475 5473
5688 5685 5683 5680 5678 5675 5673 5670 5667 5664 5661 5658 5655 5652 5648 5645 5641 5637 5634 5629 5626 5622 5618 5614 5611 5607 5603 5599 5594 5590 5585 5580 5575 5570 5566 5561 5556 5550 5545 5540 5535 5529 5524 5519 5514 5509 5504 5500 5497 5493 5489 5487 5484 5482 5480 5478 5477 5475 5474 5473 5473 5473 5473 5472 5472 5472 5472 5470 5469
5684 5681 5679 5676 5674 5671 5668 5665 5662 5659 5656 5653 5650 5646 5643 5639 5636 5632 5628 5624 5621 5617 5613 5609 5605 5601 5597 5592 5588 5583 5578 5573 5568 5563 5558 5553 5548 5543 5537 5532 5527 5521 5515 5510 5506 5501 5497 5493 5490 5487 5484 5481 5479 5477 5475 5473 5472 5470 5469 5468 5467 5467 5467 5467 5466 5466 5466 5465 5464
5680 5677 5675 5672 5669 5667 5664 5661 5658 5655 5652 5648 5645 5642 5638 5634 5631 5627 5623 5619 5616 5612 5608 5604 5600 5595 5591 5586 5581 5576 5571 5566 5561 5555 5549 5544 5539 5534 5529 5524 5519 5513 5508 5503 5499 5494 5490 5487 5484 5481 5479 5476 5474 5472 5470 5469 5467 5466 5464 5464 5463 5462 5462 5461 5461 5460 5460 5460 5459
5676 5674 5671 5669 5666 5663 5660 5657 5654 5651 5647 5644 5640 5636 5633 5629 5626 5622 5619 5614 5610 5606 5602 5598 5594 5589 5584 5579 5574 5569 5564 5559 5553 5547 5542 5536 5531 5526 5521 5516 5511 5505 5501 5496 5492 5489 5485 5482 5479 5476 5474 5472 5470 5468 5466 5465 5464 5462 5461 5460 5459 5458 5458 5457 5456 5456 5456 5455 5455
5673 5671 5668 5665 5662 5659 5657 5653 5650 5646 5643 5639 5635 5632 5628 5624 5621 5617 5613 5609 5605 5600 5596 5592 5587 5582 5577 5572 5567 5562 5556 5551 5545 5539 5534 5528 5523 5518 5513 5509 5504 5499 5494 5490 5486 5483 5480 5478 5475 5473 5470 5468 5467 5465 5463 5461 5460 5459 5458 5457 5456 5455 5454 5454 5453 5452 5451 5451 5450
5670 5667 5664 5662 5659 5656 5653 5649 5646 5642 5639 5635 5631 5627 5624 5619 5616 5612 5608 5603 5599 5594 5590 5585 5581 5576 5571 5565 5560 5554 5549 5543 5537 5531 5526 5520 5515 5510 5505 5501 5497 5493 5489 5485 5482 5479 5476 5474 5471 5469 5467 5465 5464 5462 5460 5459 5458 5456 5455 5454 5453 5452 5451 5450 5449 5449 5448 5447 5446
5666 5663 5660 5658 5655 5652 5649 5645 5642 5638 5634 5630 5627 5623 5619 5614 5611 5607 5602 5598 5593 5588 5584 5579 5574 5569 5564 5558 5553 5547 5541 5536 5530 5524 5518 5513 5508 5503 5499 5494 5491 5487 5484 5480 5478 5475 5472 5470 5468 5466 5464 5462 5460 5459 5458 5456 5455 5454 5453 5451 5450 5449 5448 5447 5446 5445 5444 5444 5443
5662 5659 5657 5654 5651 5648 5644 5641 5637 5634 5630 5626 5622 5618 5614 5609 5605 5601 5597 5592 5587 5582 5577 5572 5567 5562 5557 5552 5546 5540 5534 5528 5523 5517 5511 5506 5501 5497 5492 5489 5485 5482 5479 5476 5474 5471 5469 5467 5465 5463 5461 5459 5458 5456 5455 5453 5452 5451 5449 5449 5447 5446 5445 5444 5443 5442 5441 5440 5439
5659 5656 5653 5649 5646 5643 5640 5637 5633 5629 5625 5621 5617 5613 5609 5604 5599 5595 5590 5586 5581 5576 5571 5565 5560 5554 5549 5544 5539 5533 5527 5521 5515 5510 5505 5500 5495 5491 5487 5484 5480 5478 5475 5473 5470 5468 5466 5464 5462 5460 5459 5457 5455 5454 5452 5450 5449 5448 5447 5445 5444 5443 5442 5440 5439 5438 5437 5435 5434
5655 5652 5649 5645 5642 5639 5635 5632 5629 5625 5621 5617 5612 5608 5604 5599 5594 5589 5584 5579 5574 5569 5564 5559 5554 5548 5542 5536 5531 5526 5520 5514 5509 5504 5499 5494 5489 5486 5482 5479 5476 5474 5471 5469 5467 5465 5463 5461 5459 5457 5456 5454 5453 5451 5449 5448 5446 5445 5444 5442 5441 5439 5438 5437 5435 5434 5433 5431 5430
5651 5648 5645 5641 5638 5634 5631 5627 5624 5620 5616 5612 5607 5603 5598 5593 5588 5583 5578 5574 5569 5563 5557 5552 5547 5541 5535 5529 5524 5519 5514 5508 5503 5498 5493 5489 5485 5481 5478 5475 5473 5470 5468 5466 5464 5462 5460 5458 5456 5455 5453 5451 5450 5448 5446 5445 5443 5442 5440 5439 5437 5436 5434 5433 5431 5430 5429 5427 5426
5647 5644 5641 5637 5634 5630 5626 5622 5619 5615 5611 5606 5602 5597 5593 5588 5583 5577 5572 5567 5562 5557 5551 5545 5540 5534 5529 5523 5517 5511 5507 5502 5497 5492 5488 5484 5481 5477 5474 5472 5469 5467 5465 5463 5461 5459 5457 5455 5454 5452 5450 5449 5447 5445 5444 5442 5440 5439 5437 5435 5434 5432 5431 5429 5428 5426 5424 5423 5422
5643 5640 5636 5633 5629 5625 5621 5618 5614 5609 5605 5601 5596 5592 5587 5582 5577 5571 5566 5560 5556 5551 5545 5539 5534 5528 5522 5517 5511 5505 5500 5496 5491 5487 5483 5480 5477 5474 5471 5469 5467 5465 5463 5461 5459 5457 5455 5453 5451 5449 5448 5446 5444 5442 5441 5439 5437 5435 5434 5432 5430 5429 5427 5425 5424 5422 5420 5419 5417
5639 5635 5632 5628 5624 5621 5617 5613 5609 5604 5600 5595 5591 5586 5581 5576 5571 5566 5560 5554 5549 5544 5539 5534 5528 5522 5516 5510 5505 5499 5495 5490 5487 5483 5479 5476 5473 5471 5468 5466 5464 5462 5460 5458 5456 5454 5453 5451 5449 5447 5445 5444 5442 5440 5438 5436 5434 5432 5430 5429 5427 5425 5423 5421 5419 5418 5416 5414 5413
5635 5631 5627 5624 5620 5616 5612 5607 5603 5599 5594 5589 5585 5580 5575 5570 5565 5560 5554 5549 5543 5538 5533 5527 5522 5516 5510 5505 5499 5494 5489 5485 5482 5479 5475 5472 5470 5468 5466 5464 5462 5460 5458 5456 5454 5452 5450 5449 5447 5445 5443 5441 5439 5437 5435 5433 5431 5429 5427 5425 5423 5421 5419 5417 5415 5414 5412 5410 5408
5630 5627 5623 5619 5615 5611 5607 5602 5598 5593 5588 5584 5579 5574 5569 5564 5559 5554 5549 5543 5538 5532 5527 5521 5516 5510 5505 5500 5495 5490 5485 5481 5478 5475 5472 5469 5467 5465 5463 5461 5459 5458 5456 5454 5452 5450 5448 5446 5444 5442 5440 5438 5436 5434 5432 5429 5428 5425 5424 5422 5419 5418 5415 5414 5412 5410 5408 5406 5404
5625 5622 5618 5614 5610 5606 5601 5597 5592 5587 5583 5578 5573 5568 5563 5559 5553 5548 5543 5537 5532 5526 5521 5515 5510 5505 5500 5495 5490 5486 5481 5478 5474 5472 5469 5467 5465 5463 5461 5459 5457 5455 5453 5451 5449 5448 5445 5443 5441 5439 5437 5435 5433 5430 5428 5426 5424 5422 5420 5418 5416 5414 5412 5410 5408 5406 5404 5402 5399
5621 5617 5613 5609 5605 5601 5596 5592 5587 5582 5577 5572 5567 5563 5558 5553 5548 5542 5537 5531 5526 5520 5515 5510 5504 5499 5494 5490 5486 5482 5478 5474 5471 5469 5466 5464 5462 5460 5458 5456 5455 5453 5451 5449 5447 5444 5443 5440 5438 5436 5434 5431 5429 5427 5424 5422 5420 5418 5416 5414 5412 5410 5408 5406 5404 5401 5399 5397 5395
5616 5612 5608 5604 5600 5595 5591 5586 5582 5577 5572 5567 5562 5557 5552 5547 5542 5537 5531 5526 5520 5515 5509 5504 5499 5494 5490 5485 5481 5478 5474 5471 5468 5466 5464 5462 5460 5458 5456 5454 5452 5450 5448 5446 5444 5441 5439 5437 5435 5433 5430 5428 5426 5424 5421 5419 5417 5415 5413 5411 5409 5407 5404 5402 5400 5397 5395 5393 5390
5612 5608 5603 5599 5595 5590 5586 5581 5577 5572 5567 5562 5557 5552 5547 5542 5537 5532 5526 5520 5514 5509 5504 5499 5494 5489 5485 5481 5477 5474 5471 5468 5466 5463 5461 5459 5457 5455 5453 5451 5449 5447 5445 5443 5440 5438 5436 5434 5432 5429 5427 5425 5423 5420 5418 5415 5413 5411 5409 5407 5405 5403 5401 5399 5396 5394 5391 5389 5386
5607 5603 5598 5594 5589 5585 5581 5576 5571 5567 5562 5557 5552 5547 5542 5537 5532 5526 5521 5515 5509 5504 5498 5494 5489 5485 5481 5477 5473 5470 5467 5465 5463 5460 5458 5456 5454 5452 5450 5449 5446 5444 5442 5440 5438 5435 5433 5431 5428 5426 5424 5421 5419 5417 5414 5412 5410 5408 5405 5403 5401 5399 5397 5395 5393 5390 5388 5385 5382
5601 5597 5593 5589 5584 5580 5576 5571 5566 5562 5557 5552 5547 5542 5537 5531 5526 5521 5515 5509 5504 5499 5493 5489 5484 5480 5477 5473 5470 5467 5464 5462 5459 5458 5456 5454 5452 5450 5448 5446 5444 5442 5439 5437 5435 5432 5430 5428 5425 5423 5420 5418 5415 5413 5411 5409 5406 5404 5402 5400 5398 5395 5393 5391 5389 5386 5384 5381 5379
5596 5592 5588 5584 5579 5575 5570 5566 5561 5556 5551 5547 5542 5536 5531 5526 5520 5515 5509 5504 5499 5494 5489 5484 5480 5476 5473 5469 5466 5464 5461 5459 5457 5455 5453 5451 5449 5447 5445 5443 5441 5439 5437 5434 5432 5429 5427 5424 5422 5419 5417 5414 5412 5410 5408 5405 5403 5401 5399 5396 5394 5391 5389 5387 5384 5382 5380 5378 5375
5592 5587 5583 5579 5574 5570 5565 5561 5556 5551 5546 5541 5536 5531 5526 5520 5515 5509 5504 5499 5494 5489 5484 5480 5476 5472 5469 5466 5464 5461 5459 5456 5454 5452 5450 5448 5446 5444 5442 5440 5438 5436 5434 5431 5429 5427 5424 5422 5419 5417 5414 5412 5409 5407 5404 5402 5400 5398 5395 5393 5390 5388 5385 5383 5380 5378 5376 5374 5372
5587 5583 5578 5574 5569 5565 5560 5555 5551 5546 5541 5536 5531 5525 5520 5514 5509 5504 5498 5493 5489 5484 5480 5476 5473 5469 5466 5463 5461 5458 5456 5454 5452 5450 5448 5446 5444 5442 5439 5437 5435 5433 5431 5429 5426 5424 5421 5419 5416 5414 5411 5409 5406 5404 5401 5399 5397 5394 5392 5389 5386 5384 5381 5379 5376 5374 5372 5370 5368
5582 5578 5574 5569 5564 5559 5555 5550 5545 5540 5535 5530 5525 5520 5514 5509 5504 5498 5493 5489 5484 5479 5475 5472 5469 5466 5463 5460 5458 5456 5453 5451 5449 5447 5445 5443 5441 5439 5437 5434 5432 5430 5428 5425 5423 5421 5418 5416 5414 5411 5409 5406 5404 5401 5399 5396 5394 5391 5388 5386 5383 5380 5378 5375 5373 5370 5368 5366 5364
5578 5573 5569 5564 5559 5554 5550 5545 5540 5535 5530 5525 5520 5514 5509 5503 5498 5493 5488 5484 5479 5475 5472 5468 5465 5462 5460 5457 5455 5453 5451 5449 5447 5444 5442 5440 5438 5436 5434 5431 5429 5427 5425 5423 5420 5418 5415 5413 5411 5408 5406 5404 5401 5398 5396 5393 5390 5388 5385 5383 5380 5377 5375 5372 5369 5367 5365 5363 5361
5573 5569 5564 5559 5555 5550 5545 5540 5535 5530 5525 5519 5514 5509 5504 5498 5493 5488 5483 5479 5475 5471 5468 5465 5462 5459 5457 5455 5452 5450 5448 5446 5444 5442 5440 5438 5435 5433 5431 5429 5426 5424 5422 5419 5417 5415 5413 5410 5408 5406 5403 5401 5398 5396 5393 5390 5388 5385 5383 5380 5377 5374 5372 5369 5366 5364 5362 5360 5358
5569 5564 5559 5554 5550 5545 5540 5535 5530 5525 5520 5514 5509 5504 5498 5493 5489 5484 5479 5475 5471 5468 5464 5462 5459 5457 5454 5452 5450 5448 5446 5444 5441 5439 5437 5435 5433 5430 5428 5425 5423 5421 5419 5416 5414 5412 5409 5407 5405 5403 5400 5398 5395 5393 5390 5388 5385 5382 5380 5377 5374 5372 5369 5366 5364 5361 5359 5357 5355
5564 5559 5554 5549 5545 5540 5535 5530 5525 5520 5514 5509 5504 5499 5493 5488 5484 5479 5475 5472 5468 5464 5461 5459 5456 5454 5452 5449 5447 5445 5443 5441 5439 5437 5434 5432 5430 5427 5425 5423 5420 5418 5416 5414 5411 5409 5406 5404 5402 5399 5397 5395 5393 5390 5387 5385 5382 5380 5377 5374 5372 5369 5366 5364 5361 5359 5357 5355 5353
5559 5554 5550 5545 5540 5535 5530 5525 5520 5515 5509 5504 5499 5494 5489 5484 5479 5475 5472 5468 5464 5461 5458 5456 5453 5451 5449 5447 5444 5443 5440 5438 5436 5434 5432 5429 5427 5425 5422 5420 5418 5415 5413 5410 5408 5406 5403 5401 5399 5396 5394 5392 5389 5387 5384 5382 5379 5377 5374 5372 5369 5367 5364 5361 5359 5357 5354 5353 5351
5554 5550 5545 5540 5536 5531 5526 5520 5515 5510 5504 5499 5494 5489 5485 5480 5476 5472 5468 5465 5462 5459 5455 5453 5451 5449 5446 5444 5442 5440 5438 5436 5434 5431 5429 5427 5424 5422 5420 5417 5415 5413 5410 5408 5405 5403 5400 5398 5395 5393 5391 5389 5386 5384 5382 5379 5377 5374 5372 5369 5367 5364 5361 5359 5357 5354 5353 5350 5349
5549 5544 5540 5536 5531 5526 5521 5515 5510 5505 5500 5495 5489 5485 5480 5476 5472 5468 5465 5462 5459 5456 5453 5451 5449 5446 5444 5442 5440 5438 5435 5433 5431 5429 5426 5424 5422 5419 5417 5415 5412 5410 5408 5405 5403 5400 5398 5395 5393 5390 5388 5386 5383 5381 5379 5376 5374 5372 5369 5367 5364 5362 5359 5357 5355 5353 5351 5349 5347
5544 5539 5535 5531 5526 5521 5516 5510 5505 5500 5495 5490 5485 5481 5476 5472 5469 5465 5462 5459 5456 5454 5451 5449 5446 5444 5442 5440 5438 5435 5433 5431 5429 5426 5424 5422 5419 5417 5415 5412 5410 5407 5405 5403 5400 5397 5395 5392 5390 5387 5385 5383 5380 5378 5376 5374 5372 5369 5367 5365 5362 5360 5358 5355 5353 5351 5349 5347 5345
5539 5535 5530 5525 5521 5516 5511 5506 5500 5495 5491 5486 5481 5477 5473 5469 5465 5462 5459 5456 5453 5451 5449 5446 5444 5442 5440 5438 5435 5433 5431 5429 5426 5424 5422 5419 5417 5414 5412 5410 5407 5405 5402 5400 5397 5395 5392 5389 5387 5384 5382 5380 5378 5376 5374 5372 5369 5367 5365 5363 5360 5358 5356 5354 5352 5350 5348 5346 5344
5534 5530 5525 5521 5516 5511 5507 5502 5496 5491 5486 5481 5477 5473 5469 5465 5462 5459 5456 5453 5451 5449 5446 5444 5442 5439 5437 5435 5433 5431 5429 5426 5424 5421 5419 5417 5414 5412 5410 5407 5405 5403 5400 5398 5395 5392 5389 5387 5384 5382 5380 5377 5375 5373 5371 5369 5367 5365 5363 5361 5359 5357 5355 5353 5351 5349 5347 5344 5342